Location: ??
(35.5052°N, 139.7262°E)
Time: 02:19:04
(UTC+00:00)

Cosmos 1842 Rocket - Pass Details

Date: 20 June 2021
Orbit: 606 x 633 km, 82.5° (Epoch: 26 July)

Event Time Altitude Azimuth Distance (km) Brightness Sun altitude
Rises 16:02:08 0° 353° (N) 2,872 7.9 -28.1°
Reaches altitude 10° 16:04:21 10° 353° (N) 1,966 6.9 -28.0°
Enters shadow 16:07:31 48° 352° (N) 801 4.3 -27.7°
